This demonstration page uses our WeatherBlox Daily Observations layout. Learn more.

Left ArrowRight Arrow

39.01783, -85.05884

Hourly Observations for May 9, 2015

Temp ( °F °C ) Dew Point ( °F °C ) Humidity (%) Winds ( mph kmh ) Pressure ( in mb ) Visibility ( mi km ) Precip ( " mm )
12:52 am 00:52 Mostly Cloudy 67 19.4 54 12.2 63 63 S 5 7 30.01 1016 10 16 0.00 0.00
2:52 am 02:52 Mostly Cloudy 66 18.9 55 12.8 68 68 Calm 30.03 1017 10 16 0.00 0.00
3:52 am 03:52 Mostly Cloudy 63 17.2 56 13.3 78 78 Calm 30.03 1017 10 16 0.00 0.00
4:52 am 04:52 Mostly Cloudy 64 17.8 56 13.3 75 75 Calm 30.04 1017 10 16 0.00 0.00
5:52 am 05:52 Cloudy 65 18.3 57 13.9 76 76 WSW 3 6 30.07 1018 10 16 0.00 0.00
6:52 am 06:52 Mostly Cloudy 66 18.9 59 15 78 78 Calm 30.08 1019 10 16 0.00 0.00
7:52 am 07:52 Mostly Cloudy 66 18.9 59 15 78 78 ESE 3 6 30.08 1019 10 16 0.00 0.03
8:52 am 08:52 Mostly Cloudy 69 20.6 63 17.2 81 81 Calm 30.08 1019 10 16 0.00 0.00
9:52 am 09:52 Mostly Cloudy 72 22.2 62 16.7 71 71 S 5 7 30.08 1019 10 16 0.00 0.00
10:52 am 10:52 Mostly Cloudy 77 25 63 17.2 62 62 S 8 13 30.07 1018 10 16 0.00 0.00
11:52 am 11:52 Partly Cloudy 81 27.2 64 17.8 57 57 SSE 9 15 30.06 1018 10 16 0.00 0.00
12:52 pm 12:52 Partly Cloudy 83 28.3 62 16.7 49 49 SSW 8 13 30.06 1018 10 16 0.00 0.00
1:52 pm 13:52 Partly Cloudy 85 29.4 61 16.1 45 45 SW 10 17 30.04 1017 10 16 0.00 0.00
2:52 pm 14:52 Partly Cloudy 85 29.4 60 15.6 43 43 S 9 15 30.01 1016 10 16 0.00 0.00
3:52 pm 15:52 Mostly Cloudy 84 28.9 61 16.1 46 46 S 17 28 30.01 1016 10 16 0.00 0.00
4:52 pm 16:52 Partly Cloudy 84 28.9 60 15.6 44 44 S 12 19 30.00 1016 10 16 0.00 0.00
5:52 pm 17:52 Mostly Cloudy 83 28.3 60 15.6 46 46 S 8 13 29.99 1016 10 16 0.00 0.00
6:52 pm 18:52 Partly Cloudy 81 27.2 61 16.1 51 51 SSW 5 7 30.00 1016 10 16 0.00 0.00
7:52 pm 19:52 Partly Cloudy 80 26.7 62 16.7 54 54 W 6 9 30.01 1016 10 16 0.00 0.00
8:52 pm 20:52 Mostly Cloudy 79 26.1 61 16.1 54 54 WSW 6 9 30.01 1016 10 16 0.00 0.00
9:52 pm 21:52 Mostly Cloudy 75 23.9 62 16.7 64 64 Calm 30.04 1017 10 16 0.00 0.00
10:52 pm 22:52 Mostly Cloudy 74 23.3 62 16.7 67 67 WNW 3 6 30.05 1018 10 16 0.00 0.00
11:52 pm 23:52 Mostly Cloudy 75 23.9 62 16.7 64 64 N 3 6 30.04 1017 10 16 0.00 0.00

Powered by AerisWeather